Location: Carthage
(33.8834°N, 106.6595°W)
Time: 10:22:11
(UTC+00:00)

Cosmos 1025 Rocket - Pass Details

Date: 13 February 2026
Orbit: 587 x 609 km, 82.5° (Epoch: 10 March)

Event Time Altitude Azimuth Distance (km) Brightness Sun altitude
Rises 12:22:48 0° 354° (N) 2,873 6.4 -19.3°
Reaches altitude 10° 12:25:02 10° 355° (N) 1,964 5.5 -18.8°
Maximum altitude 12:29:23 83° 83° (E) 615 3.0 -17.9°
Drops below altitude 10° 12:33:42 10° 172° (S) 1,941 5.8 -17.0°
Sets 12:35:53 0° 173° (S) 2,837 6.6 -16.6°
